Location: ???????
(52.3000°N, 54.4667°E)
Time: 12:48:00
(UTC+00:00)

Cosmos 1356 Rocket - Pass Details

Date: 24 January 2020
Orbit: 543 x 598 km, 81.2° (Epoch: 21 February)

Event Time Altitude Azimuth Distance (km) Brightness Sun altitude
Rises 14:34:50 0° 350° (N) 2,730 6.9 -15.2°
Reaches altitude 10° 14:37:03 10° 356° (N) 1,837 5.9 -15.5°
Maximum altitude 14:41:00 51° 73° (ENE) 708 3.4 -16.1°
Drops below altitude 10° 14:44:58 10° 150° (SSE) 1,847 5.8 -16.7°
Sets 14:47:12 0° 155° (SSE) 2,748 6.7 -17.1°
